{"data":{"norad_id":46034,"epoch":"2026-05-24T06:02:16.053216Z","epoch_age_seconds":149902,"freshness":"FRESH","line1":"1 46034U 20055H   26144.25157469  .00002659  00000+0  10185-3 0  9994","line2":"2 46034  53.1610 135.7335 0001229  84.9557 275.1585 15.30205056320436","mean_motion":15.30205056,"eccentricity":0.0001229,"inclination_deg":53.161,"raan_deg":135.7335,"arg_perigee_deg":84.9557,"mean_anomaly_deg":275.1585,"bstar":0.00010185,"rev_number":32043,"period_min":94.105034769928,"perigee_km":474.35769804224,"apogee_km":476.04224827024,"semimajor_km":6853.3369731562,"source":"CELESTRAK","updated_at":"2026-05-25T13:38:16.459392Z"}}